Weather History for KFDY - January, 2012

Change the Weather History Date:

Thursday, January 19, 2012

  Actual Average Record
Temperature  
Mean Temperature 19 °F -  
Max Temperature 30 °F 30 °F 58 °F (1949)
Min Temperature 8 °F 15 °F -11 °F (1985)
Degree Days  
Heating Degree Days 46    
Moisture  
Dew Point 20 °F    
Average Humidity 80    
Maximum Humidity 93    
Minimum Humidity 68    
Precipitation  
Precipitation 0.01 in - - ()
Sea Level Pressure  
Sea Level Pressure 29.89 in    
Wind  
Wind Speed 17 mph (West)    
Max Wind Speed 24 mph    
Max Gust Speed 31 mph    
Visibility 5 miles    
Events Snow    
Averages and records for this station are not official NWS values.
T = Trace of Precipitation, MM = Missing Value Source: NWS Daily Summary

Daily Weather History Graph

Daily Weather History Graph

Search for Another Location

Airport or City:

Trip Planner

Search our weather history database for the weather conditions in past years. The results will help you decide how hot, cold, wet, or windy it might be!

Date:

Astronomy

Jan. 19, 2012 Rise Set
Actual Time 7:55 AM EST 5:35 PM EST
Civil Twilight 7:25 AM EST 6:05 PM EST
Nautical Twilight 6:51 AM EST 6:39 PM EST
Astronomical Twilight 6:19 AM EST 7:11 PM EST
Moon 4:31 AM EST (1/19) 2:05 PM EST (1/19)
Length of Visible Light 10h 39m
Length of Day
9h 39m
Waning Crescent, 16% of the Moon is Illuminated
Jan 19
Waning Crescent
Jan 23
New
Jan 30
First Quarter
Feb 7
Full
Feb 14
Last Quarter

Hourly Weather History & Observations

Time (EST) Temp. Windchill Dew Point Humidity Pressure Visibility Wind Dir Wind Speed Gust Speed Precip Events Conditions
12:53 AM 23.0 °F 10.6 °F 16.0 °F 74% 30.02 in 10.0 mi South 13.8 mph - N/A   Mostly Cloudy
1:53 AM 21.9 °F 9.8 °F 16.0 °F 78% 29.99 in 10.0 mi South 12.7 mph - N/A   Partly Cloudy
2:53 AM 23.0 °F 10.6 °F 17.1 °F 78% 29.98 in 10.0 mi South 13.8 mph - N/A   Clear
3:53 AM 25.0 °F 11.3 °F 18.0 °F 75% 29.94 in 10.0 mi South 18.4 mph - N/A   Clear
4:53 AM 26.1 °F 11.6 °F 19.0 °F 75% 29.88 in 10.0 mi South 21.9 mph 26.5 mph N/A   Clear
5:53 AM 27.0 °F 12.8 °F 19.9 °F 75% 29.87 in 10.0 mi SSW 21.9 mph 28.8 mph N/A   Partly Cloudy
6:53 AM 27.0 °F 12.8 °F 19.9 °F 75% 29.86 in 10.0 mi SSW 21.9 mph 26.5 mph N/A   Clear
7:53 AM 28.0 °F 14.9 °F 19.9 °F 72% 29.85 in 10.0 mi SSW 19.6 mph 25.3 mph N/A   Overcast
8:53 AM 28.9 °F 16.5 °F 21.0 °F 72% 29.86 in 7.0 mi SSW 18.4 mph 26.5 mph 0.00 in Snow Light Snow
9:06 AM 28.4 °F 15.4 °F 21.2 °F 74% 29.84 in 1.8 mi SW 19.6 mph 25.3 mph 0.00 in Snow Light Snow
9:21 AM 28.4 °F 16.2 °F 21.2 °F 74% 29.83 in 3.0 mi SW 17.3 mph - 0.00 in Snow Light Snow
9:37 AM 28.4 °F 16.2 °F 23.0 °F 80% 29.84 in 4.0 mi SW 17.3 mph 25.3 mph 0.00 in Snow Light Snow
9:43 AM 28.4 °F 15.4 °F 23.0 °F 80% 29.85 in 2.5 mi SW 19.6 mph - 0.00 in Snow Light Snow
9:53 AM 28.9 °F 16.9 °F 23.0 °F 78% 29.87 in 1.8 mi SW 17.3 mph 27.6 mph 0.00 in Snow Light Snow
10:12 AM 28.4 °F 16.6 °F 24.8 °F 86% 29.85 in 0.8 mi SW 16.1 mph 25.3 mph 0.00 in Snow Light Snow
10:53 AM 28.9 °F 17.3 °F 25.0 °F 85% 29.88 in 1.0 mi SW 16.1 mph 23.0 mph 0.00 in Snow Light Snow
11:14 AM 28.4 °F 16.2 °F 26.6 °F 93% 29.85 in 1.0 mi SW 17.3 mph - 0.00 in Snow Light Snow
11:51 AM 30.2 °F 17.8 °F 24.8 °F 80% 29.84 in 3.0 mi WSW 19.6 mph 26.5 mph 0.01 in Snow Light Snow
11:52 AM 30.0 °F 17.9 °F 25.0 °F 82% 29.86 in 3.0 mi WSW 18.4 mph 26.5 mph 0.01 in Snow Light Snow
12:10 PM 30.2 °F 17.8 °F 26.6 °F 86% 29.83 in 6.0 mi WSW 19.6 mph 27.6 mph 0.00 in   Overcast
12:42 PM 30.2 °F 17.8 °F 24.8 °F 80% 29.83 in 2.5 mi West 19.6 mph 28.8 mph 0.00 in Snow Light Snow
1:06 PM 30.2 °F 16.5 °F 24.8 °F 80% 29.83 in 4.0 mi West 24.2 mph 31.1 mph 0.00 in Snow Light Snow
1:20 PM 28.4 °F 16.2 °F 24.8 °F 86% 29.83 in 2.0 mi West 17.3 mph 26.5 mph 0.00 in Snow Light Snow
1:26 PM 28.4 °F 15.8 °F 24.8 °F 86% 29.82 in 1.5 mi West 18.4 mph 26.5 mph 0.00 in Snow Light Snow
1:33 PM 28.4 °F 14.4 °F 24.8 °F 86% 29.82 in 3.0 mi West 23.0 mph 28.8 mph 0.00 in Snow Light Snow
1:44 PM 28.4 °F 16.2 °F 24.8 °F 86% 29.83 in 2.0 mi West 17.3 mph - 0.00 in Snow Light Snow
1:53 PM 28.9 °F 17.3 °F 25.0 °F 85% 29.85 in 1.8 mi West 16.1 mph 23.0 mph 0.00 in Snow Light Snow
1:59 PM 28.4 °F 16.2 °F 24.8 °F 86% 29.82 in 1.5 mi West 17.3 mph - 0.00 in Snow Light Snow
2:22 PM 28.4 °F 18.0 °F 24.8 °F 86% 29.83 in 2.0 mi WNW 12.7 mph 23.0 mph 0.00 in Snow Light Snow
2:34 PM 28.4 °F 17.5 °F 24.8 °F 86% 29.83 in 1.5 mi WNW 13.8 mph - 0.00 in Snow Light Snow
2:53 PM 25.0 °F 13.1 °F 21.0 °F 85% 29.86 in 1.5 mi WNW 13.8 mph 26.5 mph 0.00 in Snow Light Snow
3:07 PM 24.8 °F 12.4 °F 21.2 °F 86% 29.85 in 2.0 mi WNW 15.0 mph 21.9 mph 0.00 in Snow Light Snow
3:10 PM 24.8 °F 11.9 °F 21.2 °F 86% 29.86 in 1.8 mi NW 16.1 mph 23.0 mph 0.00 in Snow Light Snow
3:26 PM 24.8 °F 12.9 °F 19.4 °F 80% 29.86 in 0.8 mi WNW 13.8 mph - 0.00 in Snow Light Snow
3:33 PM 24.8 °F 11.5 °F 19.4 °F 80% 29.87 in 1.0 mi WNW 17.3 mph - 0.00 in Snow Light Snow
3:47 PM 23.0 °F 9.2 °F 19.4 °F 86% 29.88 in 0.8 mi WNW 17.3 mph 23.0 mph 0.00 in Snow Light Snow
4:07 PM 21.2 °F 6.8 °F 17.6 °F 86% 29.90 in 1.5 mi WNW 17.3 mph - 0.00 in Snow Light Snow
4:12 PM 21.2 °F 7.3 °F 17.6 °F 86% 29.90 in 2.0 mi WNW 16.1 mph 24.2 mph 0.00 in Snow Light Snow
4:20 PM 21.2 °F 6.4 °F 17.6 °F 86% 29.91 in 1.0 mi WNW 18.4 mph 26.5 mph 0.00 in Snow Light Snow
4:29 PM 21.2 °F 6.8 °F 14.0 °F 74% 29.92 in 4.0 mi WNW 17.3 mph 27.6 mph 0.00 in Snow Light Snow
4:37 PM 21.2 °F 6.4 °F 12.2 °F 68% 29.93 in 9.0 mi WNW 18.4 mph 27.6 mph 0.00 in   Overcast
4:53 PM 19.9 °F 6.2 °F 12.0 °F 71% 29.97 in 10.0 mi WNW 15.0 mph 23.0 mph 0.00 in   Mostly Cloudy
5:53 PM 18.0 °F 4.8 °F 9.0 °F 68% 30.00 in 10.0 mi WNW 12.7 mph - N/A   Clear
6:53 PM 15.1 °F -0.6 °F 7.0 °F 70% 30.04 in 10.0 mi NW 16.1 mph 21.9 mph N/A   Clear
7:53 PM 12.9 °F -0.2 °F 5.0 °F 71% 30.08 in 10.0 mi NW 10.4 mph - N/A   Clear
10:53 PM 8.1 °F 1.4 °F 1.9 °F 76% 30.14 in 10.0 mi WNW 3.5 mph - N/A   Clear
11:53 PM 8.1 °F 1.4 °F 1.9 °F 76% 30.17 in 10.0 mi NW 3.5 mph - N/A   Clear